| time (UTC) | temp F | wind direction | speed MPH | gust MPH | rain 1hr in | rain 24hr in | rain mn in | humidity % | barometer mb |
| 20260510214723 | 80 | 61 | 5.0 | 13.0 | 0.00 | 0.19 | 0.00 | 74 | 1018.3 |
| 20260510214224 | 80 | 100 | 0.0 | 16.0 | 0.00 | 0.19 | 0.00 | 74 | 1018.4 |
| 20260510213724 | 80 | 95 | 0.0 | 16.0 | 0.00 | 0.19 | 0.00 | 75 | 1018.7 |
| 20260510213224 | 80 | 83 | 4.0 | 14.0 | 0.00 | 0.19 | 0.00 | 74 | 1018.5 |
| 20260510212956 | 80 | 84 | 6.0 | 11.0 | 0.00 | 0.19 | 0.00 | 73 | 1018.3 |
| 20260510212456 | 80 | 75 | 0.0 | 15.0 | 0.00 | 0.19 | 0.00 | 74 | 1018.6 |
| 20260510211724 | 80 | 51 | 0.0 | 15.0 | 0.00 | 0.19 | 0.00 | 72 | 1018.6 |
| 20260510211224 | 80 | 42 | 0.0 | 13.0 | 0.00 | 0.19 | 0.00 | 72 | 1018.9 |
| 20260510210723 | 80 | 73 | 1.0 | 11.0 | 0.00 | 0.19 | 0.00 | 72 | 1018.7 |
| 20260510210223 | 80 | 75 | 1.0 | 14.0 | 0.00 | 0.19 | 0.00 | 74 | 1018.7 |
| 20260510205723 | 80 | 116 | 0.0 | 14.0 | 0.00 | 0.19 | 0.00 | 74 | 1018.5 |
| 20260510205223 | 79 | 73 | 1.0 | 13.0 | 0.00 | 0.19 | 0.00 | 74 | 1018.5 |
| 20260510204723 | 79 | 101 | 1.0 | 15.0 | 0.00 | 0.19 | 0.00 | 74 | 1019.0 |
| 20260510204454 | 79 | 100 | 0.0 | 15.0 | 0.00 | 0.19 | 0.00 | 75 | 1018.6 |
| 20260510204329 | 80 | 75 | 2.0 | 14.0 | 0.00 | 0.19 | 0.00 | 75 | 1018.7 |
| 20260510203222 | 80 | 104 | 0.0 | 14.0 | 0.00 | 0.19 | 0.00 | 76 | 1018.7 |
| 20260510202723 | 79 | 81 | 4.0 | 14.0 | 0.00 | 0.19 | 0.00 | 76 | 1018.7 |
| 20260510202223 | 79 | 97 | 1.0 | 15.0 | 0.00 | 0.19 | 0.00 | 77 | 1019.0 |
| 20260510201722 | 78 | 88 | 2.0 | 15.0 | 0.00 | 0.19 | 0.00 | 77 | 1018.8 |
| 20260510201222 | 79 | 94 | 4.0 | 13.0 | 0.00 | 0.19 | 0.00 | 77 | 1018.8 |
| 20260510200723 | 79 | 123 | 0.0 | 13.0 | 0.00 | 0.19 | 0.00 | 78 | 1018.8 |
| 20260510200223 | 79 | 120 | 1.0 | 13.0 | 0.00 | 0.19 | 0.00 | 76 | 1018.6 |
| 20260510195723 | 79 | 58 | 0.0 | 11.0 | 0.00 | 0.19 | 0.00 | 77 | 1018.7 |
| 20260510195223 | 79 | 117 | 0.0 | 13.0 | 0.00 | 0.19 | 0.00 | 78 | 1018.7 |
| 20260510194723 | 78 | 82 | 2.0 | 13.0 | 0.00 | 0.19 | 0.00 | 77 | 1018.7 |
| 20260510194455 | 78 | 64 | 1.0 | 11.0 | 0.00 | 0.19 | 0.00 | 78 | 1018.9 |
| 20260510193723 | 78 | 45 | 1.0 | 13.0 | 0.00 | 0.19 | 0.00 | 78 | 1018.6 |
| 20260510193223 | 78 | 101 | 1.0 | 13.0 | 0.00 | 0.19 | 0.00 | 77 | 1018.7 |
| 20260510192723 | 79 | 95 | 0.0 | 10.0 | 0.00 | 0.19 | 0.00 | 78 | 1018.6 |
| 20260510192222 | 78 | 75 | 4.0 | 10.0 | 0.00 | 0.19 | 0.00 | 78 | 1018.8 |
| 20260510191723 | 78 | 115 | 0.0 | 10.0 | 0.00 | 0.19 | 0.00 | 78 | 1018.6 |
| 20260510191223 | 78 | 74 | 0.0 | 13.0 | 0.00 | 0.19 | 0.00 | 78 | 1018.6 |
| 20260510190723 | 78 | 84 | 1.0 | 17.0 | 0.00 | 0.19 | 0.00 | 77 | 1018.7 |
| 20260510190223 | 79 | 57 | 5.0 | 17.0 | 0.00 | 0.19 | 0.00 | 77 | 1018.6 |
| 20260510185723 | 79 | 102 | 2.0 | 17.0 | 0.00 | 0.19 | 0.00 | 78 | 1018.4 |
| 20260510185224 | 78 | 48 | 1.0 | 16.0 | 0.00 | 0.19 | 0.00 | 78 | 1018.6 |
| 20260510184723 | 78 | 62 | 6.0 | 16.0 | 0.00 | 0.19 | 0.00 | 78 | 1018.7 |
| 20260510184223 | 78 | 127 | 0.0 | 15.0 | 0.00 | 0.19 | 0.00 | 80 | 1018.7 |
| 20260510183720 | 77 | 87 | 6.0 | 15.0 | 0.00 | 0.19 | 0.00 | 79 | 1018.7 |
| 20260510183219 | 77 | 90 | 8.0 | 16.0 | 0.00 | 0.19 | 0.00 | 78 | 1018.5 |
| 20260510182719 | 78 | 113 | 6.0 | 17.0 | 0.00 | 0.19 | 0.00 | 78 | 1018.7 |
| 20260510182219 | 77 | 104 | 4.0 | 17.0 | 0.00 | 0.19 | 0.00 | 78 | 1018.5 |
| 20260510181720 | 77 | 110 | 2.0 | 15.0 | 0.00 | 0.19 | 0.00 | 80 | 1018.4 |
| 20260510181221 | 77 | 68 | 5.0 | 15.0 | 0.00 | 0.19 | 0.00 | 80 | 1018.5 |
| 20260510180719 | 77 | 107 | 1.0 | 15.0 | 0.00 | 0.19 | 0.00 | 80 | 1018.7 |
| 20260510180220 | 78 | 58 | 7.0 | 15.0 | 0.00 | 0.19 | 0.00 | 80 | 1018.2 |
| 20260510175721 | 77 | 104 | 8.0 | 16.0 | 0.00 | 0.19 | 0.00 | 80 | 1018.4 |
| 20260510175220 | 77 | 126 | 8.0 | 16.0 | 0.00 | 0.19 | 0.00 | 80 | 1018.3 |
| 20260510174720 | 77 | 75 | 0.0 | 16.0 | 0.00 | 0.19 | 0.00 | 82 | 1018.4 |
| 20260510174220 | 76 | 107 | 13.0 | 16.0 | 0.00 | 0.19 | 0.00 | 81 | 1018.4 |
| 20260510173720 | 76 | 98 | 6.0 | 15.0 | 0.00 | 0.19 | 0.00 | 82 | 1018.4 |
| 20260510173220 | 75 | 121 | 8.0 | 15.0 | 0.00 | 0.19 | 0.00 | 83 | 1018.2 |
| 20260510172720 | 75 | 106 | 6.0 | 15.0 | 0.00 | 0.19 | 0.00 | 83 | 1018.4 |
| 20260510172220 | 76 | 105 | 8.0 | 14.0 | 0.00 | 0.19 | 0.00 | 83 | 1018.0 |
| 20260510171720 | 75 | 93 | 7.0 | 14.0 | 0.00 | 0.19 | 0.00 | 83 | 1018.3 |
| 20260510171219 | 75 | 90 | 4.0 | 16.0 | 0.00 | 0.19 | 0.00 | 83 | 1018.2 |
| 20260510170950 | 75 | 75 | 3.0 | 17.0 | 0.00 | 0.19 | 0.00 | 84 | 1018.1 |
| 20260510170225 | 75 | 90 | 8.0 | 23.0 | 0.00 | 0.19 | 0.00 | 84 | 1018.0 |
| 20260510170219 | 75 | 83 | 4.0 | 23.0 | 0.00 | 0.19 | 0.00 | 83 | 1017.9 |
| 20260510165221 | 75 | 95 | 9.0 | 16.0 | 0.00 | 0.19 | 0.00 | 84 | 1017.8 |
| 20260510164713 | 75 | 104 | 6.0 | 16.0 | 0.00 | 0.19 | 0.00 | 83 | 1018.1 |
| 20260510164208 | 74 | 98 | 6.0 | 16.0 | 0.00 | 0.19 | 0.00 | 83 | 1017.9 |
| 20260510163707 | 74 | 92 | 6.0 | 10.0 | 0.00 | 0.19 | 0.00 | 84 | 1017.9 |
| 20260510163439 | 74 | 83 | 2.0 | 16.0 | 0.00 | 0.19 | 0.00 | 84 | 1018.0 |
| 20260510162708 | 74 | 144 | 4.0 | 17.0 | 0.00 | 0.19 | 0.00 | 85 | 1017.9 |
| 20260510162208 | 74 | 86 | 6.0 | 17.0 | 0.00 | 0.19 | 0.00 | 85 | 1017.9 |
| 20260510161708 | 74 | 83 | 6.0 | 16.0 | 0.00 | 0.19 | 0.00 | 86 | 1017.9 |
| 20260510161434 | 74 | 100 | 8.0 | 20.0 | 0.00 | 0.19 | 0.00 | 87 | 1017.7 |
| 20260510161157 | 74 | 62 | 8.0 | 16.0 | 0.00 | 0.19 | 0.00 | 85 | 1017.7 |
| 20260510160203 | 74 | 99 | 0.0 | 13.0 | 0.00 | 0.19 | 0.00 | 87 | 1017.7 |
| 20260510160156 | 74 | 107 | 8.0 | 20.0 | 0.00 | 0.19 | 0.00 | 87 | 1017.6 |
| 20260510155655 | 74 | 41 | 3.0 | 13.0 | 0.00 | 0.19 | 0.00 | 87 | 1017.9 |
| 20260510154657 | 74 | 81 | 6.0 | 15.0 | 0.00 | 0.19 | 0.00 | 87 | 1017.6 |
| 20260510154156 | 74 | 139 | 4.0 | 15.0 | 0.00 | 0.19 | 0.00 | 87 | 1017.9 |
| 20260510153650 | 74 | 69 | 7.0 | 15.0 | 0.00 | 0.19 | 0.00 | 87 | 1017.7 |
| 20260510153416 | 74 | 88 | 10.0 | 16.0 | 0.00 | 0.19 | 0.00 | 87 | 1017.5 |
| 20260510152646 | 74 | 75 | 2.0 | 16.0 | 0.00 | 0.19 | 0.00 | 87 | 1017.4 |
| 20260510152144 | 74 | 112 | 6.0 | 16.0 | 0.00 | 0.19 | 0.00 | 87 | 1017.8 |
| 20260510151644 | 74 | 105 | 1.0 | 19.0 | 0.00 | 0.19 | 0.00 | 86 | 1017.5 |
| 20260510151144 | 73 | 99 | 9.0 | 19.0 | 0.00 | 0.19 | 0.00 | 86 | 1017.4 |
| 20260510150914 | 74 | 79 | 11.0 | 17.0 | 0.00 | 0.19 | 0.00 | 87 | 1017.4 |
| 20260510150131 | 74 | 97 | 6.0 | 16.0 | 0.00 | 0.19 | 0.00 | 87 | 1017.3 |
| 20260510145631 | 74 | 82 | 9.0 | 15.0 | 0.00 | 0.19 | 0.00 | 86 | 1017.3 |
| 20260510145131 | 74 | 78 | 11.0 | 17.0 | 0.00 | 0.19 | 0.00 | 85 | 1017.3 |
| 20260510144632 | 74 | 61 | 8.0 | 17.0 | 0.00 | 0.19 | 0.00 | 86 | 1017.1 |
| 20260510144133 | 74 | 98 | 13.0 | 17.0 | 0.00 | 0.19 | 0.00 | 86 | 1017.1 |
| 20260510143632 | 74 | 71 | 5.0 | 17.0 | 0.00 | 0.19 | 0.00 | 86 | 1017.3 |
| 20260510143132 | 74 | 82 | 8.0 | 19.0 | 0.00 | 0.19 | 0.00 | 87 | 1017.0 |
| 20260510142633 | 74 | 58 | 3.0 | 19.0 | 0.00 | 0.19 | 0.00 | 86 | 1017.0 |
| 20260510142132 | 74 | 82 | 4.0 | 17.0 | 0.00 | 0.19 | 0.00 | 86 | 1017.0 |
| 20260510141632 | 74 | 119 | 1.0 | 13.0 | 0.00 | 0.19 | 0.00 | 86 | 1016.9 |
| 20260510141403 | 75 | 58 | 2.0 | 13.0 | 0.00 | 0.19 | 0.00 | 86 | 1016.8 |
| 20260510140631 | 75 | 93 | 3.0 | 13.0 | 0.00 | 0.19 | 0.00 | 85 | 1017.1 |
| 20260510140409 | 74 | 99 | 4.0 | 14.0 | 0.00 | 0.19 | 0.00 | 82 | 1017.2 |
| 20260510140132 | 74 | 91 | 9.0 | 13.0 | 0.00 | 0.19 | 0.00 | 83 | 1017.1 |
| 20260510135131 | 75 | 107 | 7.0 | 14.0 | 0.00 | 0.19 | 0.00 | 82 | 1017.3 |
| 20260510134631 | 74 | 101 | 10.0 | 13.0 | 0.00 | 0.19 | 0.00 | 81 | 1016.9 |
| 20260510134131 | 74 | 79 | 2.0 | 16.0 | 0.00 | 0.19 | 0.00 | 82 | 1017.1 |
| 20260510133632 | 74 | 74 | 7.0 | 16.0 | 0.00 | 0.19 | 0.00 | 82 | 1017.0 |
| 20260510133132 | 74 | 99 | 11.0 | 14.0 | 0.00 | 0.19 | 0.00 | 82 | 1017.1 |
| 20260510132632 | 74 | 80 | 7.0 | 13.0 | 0.00 | 0.19 | 0.00 | 83 | 1017.0 |
| 20260510132131 | 74 | 126 | 5.0 | 15.0 | 0.00 | 0.19 | 0.00 | 82 | 1017.2 |
| 20260510131633 | 74 | 181 | 1.0 | 15.0 | 0.00 | 0.19 | 0.00 | 82 | 1017.0 |
| 20260510131402 | 74 | 74 | 6.0 | 16.0 | 0.00 | 0.19 | 0.00 | 83 | 1017.0 |
| 20260510130631 | 74 | 119 | 6.0 | 16.0 | 0.00 | 0.19 | 0.00 | 84 | 1016.8 |
| 20260510130133 | 73 | 129 | 0.0 | 14.0 | 0.00 | 0.19 | 0.00 | 85 | 1016.9 |
| 20260510125631 | 73 | 111 | 4.0 | 9.0 | 0.00 | 0.19 | 0.00 | 88 | 1016.8 |
| 20260510125131 | 73 | 72 | 0.0 | 11.0 | 0.00 | 0.19 | 0.00 | 89 | 1017.1 |
| 20260510124631 | 73 | 66 | 0.0 | 14.0 | 0.00 | 0.19 | 0.00 | 89 | 1017.2 |
| 20260510124402 | 73 | 74 | 0.0 | 14.0 | 0.00 | 0.19 | 0.00 | 89 | 1016.9 |
| 20260510123631 | 73 | 47 | 5.0 | 14.0 | 0.00 | 0.19 | 0.00 | 89 | 1017.3 |
| 20260510123133 | 74 | 88 | 7.0 | 16.0 | 0.00 | 0.19 | 0.00 | 89 | 1017.2 |
| 20260510122633 | 73 | 45 | 6.0 | 16.0 | 0.00 | 0.19 | 0.00 | 88 | 1017.1 |
| 20260510122403 | 73 | 111 | 8.0 | 19.0 | 0.00 | 0.19 | 0.00 | 88 | 1017.2 |
| 20260510121631 | 74 | 98 | 9.0 | 19.0 | 0.00 | 0.19 | 0.00 | 89 | 1017.3 |
| 20260510121132 | 74 | 96 | 9.0 | 19.0 | 0.00 | 0.19 | 0.00 | 88 | 1017.2 |
| 20260510120631 | 73 | 94 | 9.0 | 19.0 | 0.00 | 0.19 | 0.00 | 86 | 1017.3 |
| 20260510120132 | 73 | 49 | 5.0 | 19.0 | 0.00 | 0.19 | 0.00 | 86 | 1017.4 |
| 20260510115632 | 74 | 91 | 12.0 | 19.0 | 0.00 | 0.19 | 0.00 | 87 | 1017.6 |
| 20260510115131 | 74 | 96 | 11.0 | 19.0 | 0.00 | 0.19 | 0.00 | 86 | 1017.5 |
| 20260510114632 | 74 | 73 | 8.0 | 19.0 | 0.00 | 0.19 | 0.00 | 86 | 1017.5 |
| 20260510114132 | 74 | 110 | 0.0 | 19.0 | 0.00 | 0.19 | 0.00 | 85 | 1017.3 |
| 20260510113635 | 74 | 105 | 6.0 | 21.0 | 0.00 | 0.19 | 0.00 | 86 | 1017.3 |
| 20260510113132 | 75 | 100 | 8.0 | 21.0 | 0.00 | 0.19 | 0.00 | 86 | 1017.7 |
| 20260510112632 | 75 | 84 | 9.0 | 20.0 | 0.00 | 0.19 | 0.00 | 86 | 1017.6 |
| 20260510112402 | 75 | 121 | 11.0 | 20.0 | 0.00 | 0.19 | 0.00 | 86 | 1017.6 |
| 20260510111632 | 75 | 28 | 7.0 | 23.0 | 0.00 | 0.19 | 0.00 | 85 | 1017.5 |
| 20260510111132 | 75 | 78 | 14.0 | 23.0 | 0.00 | 0.19 | 0.00 | 86 | 1017.6 |
| 20260510110632 | 75 | 75 | 13.0 | 20.0 | 0.00 | 0.19 | 0.00 | 86 | 1017.6 |
| 20260510110131 | 74 | 56 | 12.0 | 20.0 | 0.00 | 0.19 | 0.00 | 87 | 1017.7 |
| 20260510105632 | 74 | 87 | 14.0 | 17.0 | 0.00 | 0.19 | 0.00 | 88 | 1017.5 |
| 20260510105132 | 74 | 79 | 9.0 | 14.0 | 0.00 | 0.19 | 0.00 | 89 | 1017.8 |
| 20260510104632 | 74 | 90 | 7.0 | 16.0 | 0.00 | 0.19 | 0.00 | 91 | 1017.8 |
| 20260510104131 | 74 | 89 | 8.0 | 16.0 | 0.00 | 0.19 | 0.00 | 90 | 1017.8 |
| 20260510103631 | 74 | 92 | 10.0 | 16.0 | 0.00 | 0.19 | 0.00 | 90 | 1018.1 |
| 20260510103132 | 74 | 58 | 13.0 | 15.0 | 0.00 | 0.19 | 0.00 | 89 | 1018.1 |
| 20260510102633 | 74 | 60 | 6.0 | 17.0 | 0.00 | 0.19 | 0.00 | 88 | 1018.0 |
| 20260510102131 | 74 | 77 | 11.0 | 19.0 | 0.00 | 0.19 | 0.00 | 87 | 1018.1 |
| 20260510101632 | 74 | 86 | 13.0 | 19.0 | 0.00 | 0.19 | 0.00 | 87 | 1017.9 |
| 20260510101402 | 74 | 71 | 11.0 | 19.0 | 0.00 | 0.19 | 0.00 | 87 | 1017.8 |
| 20260510100632 | 74 | 82 | 6.0 | 16.0 | 0.00 | 0.19 | 0.00 | 87 | 1017.9 |
| 20260510100132 | 75 | 62 | 4.0 | 20.0 | 0.00 | 0.19 | 0.00 | 87 | 1017.9 |
| 20260510095631 | 75 | 75 | 13.0 | 21.0 | 0.00 | 0.19 | 0.19 | 87 | 1018.0 |
| 20260510095402 | 75 | 65 | 10.0 | 21.0 | 0.00 | 0.19 | 0.19 | 87 | 1018.0 |
| 20260510094902 | 75 | 56 | 10.0 | 21.0 | 0.00 | 0.19 | 0.19 | 86 | 1018.1 |
| 20260510094131 | 75 | 25 | 11.0 | 21.0 | 0.00 | 0.19 | 0.19 | 86 | 1018.5 |
| 20260510093632 | 75 | 81 | 13.0 | 21.0 | 0.00 | 0.19 | 0.19 | 87 | 1018.4 |
| 20260510093132 | 75 | 86 | 10.0 | 21.0 | 0.00 | 0.19 | 0.19 | 87 | 1018.4 |
| 20260510092632 | 75 | 106 | 14.0 | 21.0 | 0.00 | 0.19 | 0.19 | 87 | 1018.6 |
| 20260510092403 | 75 | 75 | 9.0 | 21.0 | 0.00 | 0.19 | 0.19 | 86 | 1018.4 |
| 20260510091632 | 75 | 80 | 8.0 | 21.0 | 0.00 | 0.19 | 0.19 | 87 | 1018.4 |
| 20260510091132 | 74 | 56 | 11.0 | 20.0 | 0.00 | 0.19 | 0.19 | 87 | 1018.5 |
| 20260510090904 | 75 | 48 | 9.0 | 21.0 | 0.00 | 0.19 | 0.19 | 87 | 1018.6 |
| 20260510090403 | 74 | 89 | 8.0 | 21.0 | 0.00 | 0.19 | 0.19 | 88 | 1018.8 |
| 20260510085632 | 74 | 44 | 11.0 | 21.0 | 0.00 | 0.19 | 0.19 | 88 | 1018.6 |
| 20260510085132 | 74 | 72 | 9.0 | 17.0 | 0.00 | 0.19 | 0.19 | 89 | 1018.4 |
| 20260510084632 | 74 | 43 | 9.0 | 19.0 | 0.00 | 0.19 | 0.19 | 89 | 1018.6 |
| 20260510084402 | 74 | 39 | 10.0 | 19.0 | 0.00 | 0.19 | 0.19 | 89 | 1018.5 |
| 20260510084237 | 74 | 69 | 6.0 | 19.0 | 0.00 | 0.19 | 0.19 | 90 | 1018.6 |
| 20260510083132 | 74 | 87 | 8.0 | 19.0 | 0.00 | 0.19 | 0.19 | 90 | 1018.9 |
| 20260510082632 | 74 | 70 | 6.0 | 17.0 | 0.00 | 0.19 | 0.19 | 89 | 1018.5 |
| 20260510082133 | 74 | 58 | 8.0 | 19.0 | 0.00 | 0.19 | 0.19 | 90 | 1018.5 |
| 20260510081902 | 73 | 49 | 8.0 | 21.0 | 0.00 | 0.19 | 0.19 | 89 | 1018.5 |
| 20260510081132 | 73 | 52 | 9.0 | 21.0 | 0.00 | 0.19 | 0.19 | 90 | 1018.6 |
| 20260510080902 | 73 | 122 | 7.0 | 19.0 | 0.00 | 0.19 | 0.19 | 91 | 1018.6 |
| 20260510080131 | 73 | 79 | 10.0 | 19.0 | 0.00 | 0.19 | 0.19 | 90 | 1018.6 |
| 20260510075632 | 73 | 128 | 13.0 | 19.0 | 0.00 | 0.19 | 0.19 | 90 | 1018.3 |
| 20260510075131 | 73 | 65 | 14.0 | 21.0 | 0.00 | 0.19 | 0.19 | 89 | 1018.2 |
| 20260510074631 | 73 | 71 | 11.0 | 21.0 | 0.00 | 0.19 | 0.19 | 89 | 1018.2 |
| 20260510074131 | 73 | 59 | 5.0 | 24.0 | 0.00 | 0.19 | 0.19 | 89 | 1018.3 |
| 20260510073631 | 74 | 94 | 8.0 | 24.0 | 0.00 | 0.19 | 0.19 | 89 | 1018.4 |
| 20260510073130 | 74 | 121 | 14.0 | 20.0 | 0.00 | 0.19 | 0.19 | 89 | 1018.2 |
| 20260510072630 | 73 | 111 | 6.0 | 19.0 | 0.00 | 0.19 | 0.19 | 88 | 1018.2 |
| 20260510072129 | 73 | 79 | 12.0 | 23.0 | 0.00 | 0.19 | 0.19 | 88 | 1018.1 |
| 20260510071630 | 73 | 94 | 8.0 | 23.0 | 0.00 | 0.19 | 0.19 | 89 | 1018.1 |
| 20260510071401 | 73 | 143 | 12.0 | 21.0 | 0.00 | 0.19 | 0.19 | 90 | 1018.0 |
| 20260510070629 | 73 | 83 | 9.0 | 20.0 | 0.00 | 0.19 | 0.19 | 90 | 1017.9 |
| 20260510070133 | 73 | 84 | 6.0 | 16.0 | 0.00 | 0.19 | 0.19 | 91 | 1017.7 |
| 20260510065630 | 73 | 111 | 6.0 | 20.0 | 0.12 | 0.19 | 0.19 | 91 | 1017.7 |
| 20260510065130 | 73 | 120 | 8.0 | 20.0 | 0.18 | 0.19 | 0.19 | 91 | 1017.7 |
| 20260510064901 | 73 | 117 | 13.0 | 19.0 | 0.18 | 0.19 | 0.19 | 91 | 1017.6 |
| 20260510064118 | 73 | 113 | 0.0 | 21.0 | 0.18 | 0.19 | 0.19 | 92 | 1017.7 |
| 20260510063849 | 73 | 82 | 6.0 | 21.0 | 0.18 | 0.19 | 0.19 | 92 | 1017.6 |
| 20260510063117 | 73 | 40 | 6.0 | 24.0 | 0.18 | 0.19 | 0.19 | 92 | 1017.3 |
| 20260510062848 | 73 | 72 | 11.0 | 24.0 | 0.18 | 0.19 | 0.19 | 92 | 1017.3 |
| 20260510062116 | 73 | 84 | 8.0 | 19.0 | 0.18 | 0.19 | 0.19 | 92 | 1017.1 |
| 20260510061617 | 73 | 102 | 13.0 | 19.0 | 0.18 | 0.19 | 0.19 | 92 | 1017.2 |
| 20260510061117 | 73 | 88 | 12.0 | 19.0 | 0.18 | 0.19 | 0.19 | 92 | 1017.0 |
| 20260510060618 | 73 | 99 | 9.0 | 17.0 | 0.18 | 0.19 | 0.19 | 92 | 1016.9 |
| 20260510060116 | 73 | 133 | 6.0 | 17.0 | 0.18 | 0.19 | 0.19 | 92 | 1016.9 |
| 20260510055617 | 73 | 143 | 10.0 | 13.0 | 0.06 | 0.07 | 0.09 | 91 | 1017.1 |
| 20260510055117 | 73 | 115 | 0.0 | 9.0 | 0.00 | 0.01 | 0.01 | 91 | 1017.2 |
| 20260510054616 | 73 | 139 | 0.0 | 9.0 | 0.00 | 0.01 | 0.01 | 92 | 1016.8 |
| 20260510054116 | 73 | 139 | 0.0 | 9.0 | 0.00 | 0.01 | 0.01 | 92 | 1016.8 |
| 20260510053616 | 72 | 138 | 0.0 | 9.0 | 0.00 | 0.01 | 0.01 | 92 | 1016.9 |
| 20260510053117 | 72 | 105 | 0.0 | 9.0 | 0.00 | 0.01 | 0.01 | 92 | 1016.6 |
| 20260510052616 | 72 | 154 | 0.0 | 0.0 | 0.00 | 0.01 | 0.01 | 92 | 1016.6 |
| 20260510052116 | 72 | 173 | 0.0 | 0.0 | 0.00 | 0.01 | 0.01 | 92 | 1016.6 |
| 20260510051616 | 72 | 155 | 0.0 | 0.0 | 0.00 | 0.01 | 0.01 | 92 | 1016.3 |
| 20260510051118 | 72 | 157 | 0.0 | 0.0 | 0.00 | 0.01 | 0.01 | 92 | 1016.6 |
| 20260510050616 | 72 | 157 | 0.0 | 0.0 | 0.00 | 0.01 | 0.01 | 91 | 1016.3 |
| 20260510050116 | 73 | 157 | 0.0 | 0.0 | 0.00 | 0.01 | 0.01 | 91 | 1016.2 |
| 20260510045615 | 73 | 266 | 0.0 | 0.0 | 0.00 | 0.01 | 0.01 | 91 | 1016.3 |
| 20260510045104 | 73 | 266 | 0.0 | 0.0 | 0.00 | 0.01 | 0.01 | 90 | 1016.4 |
| 20260510044604 | 73 | 268 | 0.0 | 0.0 | 0.00 | 0.01 | 0.01 | 90 | 1016.0 |
| 20260510044104 | 73 | 268 | 0.0 | 0.0 | 0.01 | 0.01 | 0.01 | 90 | 1016.2 |
| 20260510043539 | 73 | 268 | 0.0 | 0.0 | 0.01 | 0.01 | 0.01 | 90 | 1016.0 |
| 20260510043311 | 73 | 331 | 0.0 | 0.0 | 0.01 | 0.01 | 0.01 | 90 | 1015.9 |
| 20260510042540 | 73 | 338 | 0.0 | 0.0 | 0.01 | 0.01 | 0.01 | 90 | 1015.9 |
| 20260510042027 | 73 | 289 | 0.0 | 0.0 | 0.01 | 0.01 | 0.01 | 90 | 1016.1 |
| 20260510041527 | 73 | 353 | 0.0 | 0.0 | 0.01 | 0.01 | 0.01 | 90 | 1016.0 |
| 20260510041257 | 73 | 310 | 0.0 | 0.0 | 0.01 | 0.01 | 0.01 | 90 | 1015.9 |
| 20260510040528 | 73 | 304 | 0.0 | 10.0 | 0.01 | 0.01 | 0.01 | 91 | 1016.0 |
| 20260510040026 | 73 | 327 | 0.0 | 11.0 | 0.01 | 0.01 | 0.01 | 91 | 1015.7 |
| 20260510035526 | 73 | 28 | 0.0 | 11.0 | 0.01 | 0.01 | 0.01 | 90 | 1015.9 |
| 20260510035026 | 73 | 304 | 0.0 | 9.0 | 0.01 | 0.01 | 0.01 | 90 | 1015.9 |
| 20260510034527 | 73 | 347 | 0.0 | 15.0 | 0.01 | 0.01 | 0.01 | 90 | 1015.9 |
| 20260510034027 | 73 | 80 | 1.0 | 15.0 | 0.00 | 0.00 | 0.00 | 90 | 1016.0 |
| 20260510033526 | 73 | 52 | 11.0 | 17.0 | 0.00 | 0.00 | 0.00 | 89 | 1015.7 |
| 20260510033026 | 74 | 0 | 6.0 | 17.0 | 0.00 | 0.00 | 0.00 | 89 | 1015.7 |
| 20260510032520 | 74 | 329 | 13.0 | 17.0 | 0.00 | 0.00 | 0.00 | 88 | 1015.9 |
| 20260510032014 | 74 | 49 | 9.0 | 17.0 | 0.00 | 0.00 | 0.00 | 87 | 1015.9 |
| 20260510031520 | 74 | 28 | 8.0 | 16.0 | 0.00 | 0.00 | 0.00 | 86 | 1016.0 |
| 20260510031514 | 74 | 22 | 10.0 | 16.0 | 0.00 | 0.00 | 0.00 | 87 | 1015.9 |
| 20260510030513 | 74 | 76 | 5.0 | 20.0 | 0.00 | 0.00 | 0.00 | 86 | 1015.8 |
| 20260510030244 | 74 | 17 | 12.0 | 20.0 | 0.00 | 0.00 | 0.00 | 85 | 1015.8 |
| 20260510025745 | 74 | 44 | 10.0 | 20.0 | 0.00 | 0.00 | 0.00 | 83 | 1015.9 |
| 20260510025007 | 75 | 32 | 9.0 | 20.0 | 0.00 | 0.00 | 0.00 | 83 | 1015.8 |
| 20260510024501 | 75 | 19 | 8.0 | 19.0 | 0.00 | 0.00 | 0.00 | 83 | 1015.9 |
| 20260510024003 | 75 | 110 | 10.0 | 24.0 | 0.00 | 0.00 | 0.00 | 83 | 1016.0 |
| 20260510023502 | 75 | 46 | 15.0 | 24.0 | 0.00 | 0.00 | 0.00 | 83 | 1015.7 |
| 20260510023232 | 75 | 75 | 10.0 | 21.0 | 0.00 | 0.00 | 0.00 | 83 | 1015.8 |
| 20260510022502 | 75 | 55 | 8.0 | 23.0 | 0.00 | 0.00 | 0.00 | 82 | 1016.0 |
| 20260510022002 | 76 | 79 | 14.0 | 23.0 | 0.00 | 0.00 | 0.00 | 81 | 1016.0 |
| 20260510021508 | 76 | 33 | 11.0 | 29.0 | 0.00 | 0.00 | 0.00 | 80 | 1016.3 |
| 20260510021501 | 76 | 25 | 9.0 | 29.0 | 0.00 | 0.00 | 0.00 | 81 | 1016.0 |
| 20260510020459 | 76 | 46 | 15.0 | 20.0 | 0.00 | 0.00 | 0.00 | 82 | 1016.0 |
| 20260510020001 | 76 | 46 | 8.0 | 20.0 | 0.00 | 0.00 | 0.00 | 82 | 1016.1 |
| 20260510015452 | 76 | 29 | 11.0 | 19.0 | 0.00 | 0.00 | 0.00 | 81 | 1016.2 |
| 20260510014946 | 76 | 71 | 12.0 | 17.0 | 0.00 | 0.00 | 0.00 | 81 | 1015.9 |
| 20260510014446 | 75 | 40 | 12.0 | 19.0 | 0.00 | 0.00 | 0.00 | 80 | 1016.1 |
| 20260510013934 | 76 | 76 | 10.0 | 19.0 | 0.00 | 0.00 | 0.00 | 82 | 1016.4 |
| 20260510013439 | 76 | 60 | 11.0 | 20.0 | 0.00 | 0.00 | 0.00 | 82 | 1016.2 |
| 20260510013434 | 76 | 55 | 6.0 | 20.0 | 0.00 | 0.00 | 0.00 | 82 | 1016.2 |
| 20260510012434 | 76 | 83 | 9.0 | 24.0 | 0.00 | 0.00 | 0.00 | 82 | 1016.2 |
| 20260510011936 | 76 | 61 | 8.0 | 24.0 | 0.00 | 0.00 | 0.00 | 83 | 1016.1 |
| 20260510011705 | 76 | 73 | 14.0 | 20.0 | 0.00 | 0.00 | 0.00 | 82 | 1015.8 |
| 20260510010934 | 76 | 75 | 7.0 | 25.0 | 0.00 | 0.00 | 0.00 | 82 | 1016.0 |
| 20260510010434 | 76 | 62 | 8.0 | 25.0 | 0.00 | 0.00 | 0.00 | 83 | 1016.4 |
| 20260510005934 | 77 | 104 | 5.0 | 21.0 | 0.00 | 0.00 | 0.00 | 82 | 1016.3 |
| 20260510005432 | 77 | 63 | 12.0 | 21.0 | 0.00 | 0.00 | 0.00 | 81 | 1016.6 |
| 20260510004932 | 77 | 68 | 11.0 | 19.0 | 0.00 | 0.00 | 0.00 | 81 | 1016.5 |
| 20260510004431 | 77 | 40 | 10.0 | 19.0 | 0.00 | 0.00 | 0.00 | 82 | 1016.4 |
| 20260510004209 | 77 | 34 | 8.0 | 16.0 | 0.00 | 0.00 | 0.00 | 81 | 1016.4 |
| 20260510003932 | 77 | 76 | 10.0 | 19.0 | 0.00 | 0.00 | 0.00 | 82 | 1016.2 |
| 20260510002932 | 76 | 47 | 10.0 | 23.0 | 0.00 | 0.00 | 0.00 | 82 | 1016.2 |
| 20260510002424 | 76 | 34 | 10.0 | 23.0 | 0.00 | 0.00 | 0.00 | 84 | 1016.4 |
| 20260510001920 | 76 | 61 | 13.0 | 23.0 | 0.00 | 0.00 | 0.00 | 82 | 1016.6 |
| 20260510001418 | 77 | 87 | 9.0 | 20.0 | 0.00 | 0.00 | 0.00 | 83 | 1016.6 |
| 20260510000918 | 77 | 80 | 11.0 | 20.0 | 0.00 | 0.00 | 0.00 | 83 | 1016.5 |
| 20260510000419 | 76 | 67 | 8.0 | 25.0 | 0.00 | 0.00 | 0.00 | 83 | 1016.6 |
| 20260509235918 | 76 | 92 | 15.0 | 25.0 | 0.00 | 0.00 | 0.00 | 83 | 1016.5 |
| 20260509235419 | 76 | 11 | 8.0 | 21.0 | 0.00 | 0.00 | 0.00 | 83 | 1016.4 |
| 20260509234918 | 76 | 111 | 13.0 | 21.0 | 0.00 | 0.00 | 0.00 | 82 | 1016.4 |
| 20260509234419 | 77 | 30 | 9.0 | 19.0 | 0.00 | 0.00 | 0.00 | 82 | 1016.6 |
| 20260509233924 | 78 | 30 | 9.0 | 21.0 | 0.00 | 0.00 | 0.00 | 80 | 1016.7 |
| 20260509233919 | 78 | 70 | 5.0 | 19.0 | 0.00 | 0.00 | 0.00 | 80 | 1017.0 |
| 20260509232919 | 78 | 85 | 4.0 | 21.0 | 0.00 | 0.00 | 0.00 | 80 | 1016.9 |
| 20260509232419 | 78 | 75 | 11.0 | 20.0 | 0.00 | 0.00 | 0.00 | 81 | 1017.0 |
| 20260509231918 | 78 | 38 | 11.0 | 25.0 | 0.00 | 0.00 | 0.00 | 81 | 1017.0 |
| 20260509231649 | 77 | 61 | 9.0 | 25.0 | 0.00 | 0.00 | 0.00 | 81 | 1016.9 |
| 20260509231151 | 78 | 65 | 12.0 | 17.0 | 0.00 | 0.00 | 0.00 | 82 | 1016.9 |
| 20260509230419 | 77 | 48 | 11.0 | 23.0 | 0.00 | 0.00 | 0.00 | 81 | 1017.3 |
| 20260509225919 | 77 | 106 | 4.0 | 23.0 | 0.00 | 0.00 | 0.00 | 81 | 1017.1 |
| 20260509225419 | 78 | 102 | 4.0 | 19.0 | 0.00 | 0.00 | 0.00 | 81 | 1017.2 |
| 20260509224918 | 78 | 67 | 11.0 | 19.0 | 0.00 | 0.00 | 0.00 | 81 | 1017.1 |
| 20260509224419 | 78 | 94 | 3.0 | 19.0 | 0.00 | 0.00 | 0.00 | 81 | 1017.2 |
| 20260509223919 | 78 | 87 | 6.0 | 19.0 | 0.00 | 0.00 | 0.00 | 79 | 1017.2 |
| 20260509223419 | 79 | 92 | 10.0 | 21.0 | 0.00 | 0.00 | 0.00 | 79 | 1017.1 |
| 20260509222919 | 79 | 102 | 8.0 | 21.0 | 0.00 | 0.00 | 0.00 | 79 | 1017.5 |
| 20260509222419 | 80 | 42 | 10.0 | 19.0 | 0.00 | 0.00 | 0.00 | 80 | 1017.6 |
| 20260509221906 | 79 | 68 | 8.0 | 16.0 | 0.00 | 0.00 | 0.00 | 80 | 1017.3 |
| 20260509221638 | 79 | 59 | 11.0 | 16.0 | 0.00 | 0.00 | 0.00 | 79 | 1017.4 |
| 20260509220907 | 79 | 87 | 10.0 | 17.0 | 0.00 | 0.00 | 0.00 | 78 | 1017.4 |
| 20260509220406 | 80 | 39 | 8.0 | 17.0 | 0.00 | 0.00 | 0.00 | 77 | 1017.2 |
| 20260509215905 | 80 | 37 | 8.0 | 16.0 | 0.00 | 0.00 | 0.00 | 79 | 1017.5 |